Wind_Speed
65 65 65 61 59 56 53 51 50 47 46 46 45 42 38 37 37 34 33 32 31 29 29 29 28 27 26 25 23 23 23 24 24 23 24 24 25 26 26 25 25 24 25 25
68 68 62 60 58 56 55 54 51 49 48 48 46 45 41 39 38 36 35 34 33 32 31 30 30 29 28 27 26 25 25 26 26 26 27 28 28 28 28 27 27 27 28 28
68 66 63 63 62 59 57 56 53 51 49 49 48 48 44 41 40 39 37 36 35 33 33 32 32 31 30 29 29 29 29 29 29 30 30 30 30 30 29 30 31 31 31 31
66 65 65 65 63 61 59 56 54 53 52 50 50 51 47 43 42 41 39 37 36 35 35 35 34 33 32 31 32 32 32 31 31 32 33 33 32 32 32 34 35 35 35 35
66 65 65 65 62 60 58 56 55 53 53 53 51 54 52 46 44 42 39 37 37 36 36 36 36 35 35 35 35 35 36 35 35 35 35 36 35 35 36 37 37 37 38 38
62 62 62 59 57 58 58 57 56 55 54 58 55 56 57 49 46 43 40 39 38 38 38 37 38 37 37 38 38 38 38 38 38 37 37 38 38 38 39 40 40 40 41 41
61 61 61 59 59 59 59 58 57 58 59 62 58 58 59 51 46 43 41 40 39 40 40 40 40 39 39 39 39 39 40 40 40 41 40 40 40 41 42 43 43 43 43 44
61 62 61 61 61 60 60 59 59 59 60 59 59 59 56 52 48 44 42 41 41 42 42 42 42 41 41 41 40 41 41 42 42 43 43 43 43 44 45 45 46 46 46 47
59 59 58 58 58 58 58 59 57 58 59 59 59 58 55 52 49 45 43 43 43 44 44 45 45 44 43 43 43 43 43 44 45 46 46 46 46 47 47 48 49 49 49 50
57 58 57 56 58 60 59 56 59 60 59 59 59 58 55 51 50 48 45 44 45 46 46 47 47 46 46 45 45 45 46 46 46 48 48 49 50 50 50 51 52 52 52 53
58 58 57 57 58 56 57 59 59 59 59 58 57 55 52 51 50 49 48 47 47 47 47 48 48 49 48 48 48 48 48 48 48 49 50 51 52 53 53 54 54 54 55 55
57 56 57 56 55 55 57 57 57 58 57 56 55 51 49 49 50 50 50 49 48 49 49 49 50 50 50 50 50 50 50 50 51 51 52 53 54 56 56 57 57 57 58 58
57 57 57 59 59 57 57 56 56 55 56 56 55 49 47 48 50 50 50 49 48 49 49 50 50 51 51 51 51 52 52 53 53 54 54 55 56 57 58 59 60 60 60 60
57 59 59 58 55 53 54 55 55 56 57 55 51 46 47 49 49 49 49 49 49 50 50 50 50 51 51 52 52 53 54 54 54 55 55 56 57 58 59 61 61 62 62 62
57 57 56 55 55 54 53 53 53 54 53 52 48 46 45 47 49 50 50 51 51 51 51 51 51 51 51 52 52 52 53 54 55 56 56 57 57 58 60 61 62 63 64 64
56 55 55 56 55 56 56 55 54 53 51 51 50 47 44 48 51 52 52 52 51 51 51 51 52 52 51 51 51 51 52 53 53 54 55 55 56 57 59 60 61 62 63 63
54 55 55 56 57 57 58 54 53 53 51 50 49 44 45 48 50 50 50 51 51 50 50 50 51 51 50 50 50 50 50 50 50 51 52 53 53 54 55 57 59 59 59 59
53 52 53 54 55 58 52 50 50 50 50 49 47 45 46 48 48 49 49 50 50 50 49 49 49 49 49 49 49 48 48 48 49 49 50 51 52 52 53 54 55 56 57 57
54 52 51 53 54 54 51 49 48 49 49 46 46 45 46 47 49 48 48 49 48 48 48 48 48 48 48 47 47 47 47 47 47 47 48 49 49 50 51 52 52 53 54 55
53 53 52 51 52 52 47 46 47 49 49 44 46 45 46 47 48 44 44 45 46 47 47 47 47 47 46 46 46 46 46 46 46 47 47 48 48 49 50 51 51 52 52 53
52 51 52 51 50 48 46 47 49 50 42 40 42 43 43 45 44 42 43 45 45 46 46 46 45 45 44 44 44 44 45 46 46 47 47 48 48 49 50 50 51 52 52 52
51 51 50 49 49 46 46 48 48 44 41 41 41 41 41 42 42 43 44 44 44 44 44 43 43 43 43 43 44 44 44 45 45 46 47 47 48 49 50 50 51 51 51 51
51 49 48 48 45 43 44 44 44 43 42 42 41 41 41 41 42 43 44 44 43 43 42 42 42 42 42 42 43 43 43 44 44 44 45 46 47 47 48 48 49 49 49 50
50 49 48 46 44 44 43 42 41 41 40 41 42 42 42 41 42 42 43 43 43 42 42 42 42 42 42 42 42 42 42 43 43 43 44 44 45 46 47 48 48 49 49 49
48 47 47 46 44 45 45 44 43 42 41 41 42 43 42 42 42 42 43 43 43 43 42 42 42 42 42 42 42 42 42 43 43 43 44 44 45 45 46 46 47 48 48 49
47 47 46 45 45 45 44 44 44 44 42 42 43 43 44 44 43 44 44 44 44 44 44 43 43 42 42 43 43 43 43 44 44 44 44 45 45 46 46 47 47 48 49 50
Wind_Direction
230 230 232 234 236 238 240 240 242 243 244 244 244 245 243 246 248 250 252 253 255 255 255 256 258 258 259 260 260 260 260 260 259 258 256 254 251 250 250 251 253 255 257 258
230 232 233 235 236 237 239 241 243 244 244 245 245 246 245 246 249 251 252 254 255 256 257 259 259 260 260 260 261 260 260 260 259 258 256 256 255 256 255 256 257 257 258 260
233 233 234 235 235 236 239 242 245 246 246 247 247 246 245 246 249 250 253 255 257 258 259 260 260 260 261 262 262 261 260 260 260 259 259 259 260 260 260 259 258 257 259 261
233 234 234 236 237 238 241 242 244 246 246 247 248 249 245 246 249 252 253 255 256 258 259 260 260 260 261 262 261 261 261 261 262 261 262 261 261 261 260 260 260 262 263 264
232 233 234 235 237 238 240 240 242 244 247 247 247 250 245 245 249 251 253 255 256 257 259 260 261 260 260 261 261 262 262 262 263 263 263 263 263 262 261 262 263 265 266 266
232 233 233 234 234 235 236 237 239 242 244 246 246 249 248 245 248 251 254 256 257 258 259 259 260 260 261 262 262 263 264 264 264 264 264 264 264 263 262 263 264 265 266 267
227 229 230 230 230 231 233 235 237 239 241 246 246 248 251 249 250 252 254 256 258 258 258 259 260 262 262 262 264 264 264 264 264 264 265 264 263 263 263 263 264 265 266 268
227 229 231 231 232 233 235 237 238 241 244 247 248 250 252 254 253 253 254 255 256 258 259 259 260 261 262 262 263 265 265 264 264 264 264 264 264 264 264 264 265 265 266 267
228 231 232 232 233 233 233 235 237 239 242 244 247 250 251 253 254 254 253 253 254 256 258 260 260 261 262 263 264 264 265 265 265 265 265 264 264 264 264 264 264 265 265 266
227 229 230 231 231 231 232 234 234 237 240 243 247 250 251 251 253 255 254 253 253 255 257 259 260 261 262 263 264 265 265 266 266 265 265 265 264 264 263 264 264 265 265 266
225 228 229 229 230 232 232 233 234 237 240 243 247 249 250 252 253 254 255 255 254 255 256 258 260 261 262 263 263 264 265 265 265 265 265 265 264 263 263 263 264 265 265 266
224 227 228 229 230 232 235 236 237 239 243 245 248 249 250 252 253 254 254 255 254 255 256 257 258 260 261 262 263 264 264 264 264 264 264 264 263 263 263 263 263 264 265 266
226 227 228 229 230 231 233 235 237 240 243 244 245 246 247 249 251 254 255 256 256 256 256 256 257 258 259 261 262 263 264 264 264 263 264 264 263 263 263 263 263 264 265 265
228 231 231 233 236 238 238 238 238 240 241 243 245 247 247 249 252 253 255 257 258 258 258 258 258 259 260 260 261 262 263 264 264 263 264 264 264 264 264 264 264 264 265 265
228 230 231 234 236 238 240 241 242 243 244 245 245 245 245 249 251 252 254 257 258 259 260 260 261 261 261 261 262 262 263 264 264 264 265 265 265 265 265 264 264 265 265 266
227 230 231 233 235 237 239 239 241 242 242 244 244 242 243 247 251 253 255 257 258 260 261 261 262 263 264 264 264 264 264 264 265 265 266 265 265 265 265 265 264 265 266 267
230 231 232 234 235 238 239 238 240 242 244 246 246 245 247 249 251 253 255 257 258 259 260 262 264 265 265 266 267 267 267 267 266 266 265 265 265 265 265 265 264 265 266 268
230 231 232 234 235 238 238 239 243 244 245 245 246 245 247 249 252 253 255 257 259 261 263 265 266 266 267 268 269 269 269 269 268 267 266 266 266 266 265 265 266 267 267 268
229 231 233 235 237 239 237 237 240 243 244 245 247 246 248 251 252 253 256 258 260 262 264 265 266 267 268 269 270 270 270 270 269 269 268 268 268 268 267 267 268 269 269 270
228 230 233 234 236 237 237 239 241 244 244 243 247 247 248 250 253 254 256 258 260 261 262 264 265 267 268 269 269 270 270 270 270 270 270 269 269 270 270 271 270 271 272 273
224 228 231 233 236 236 235 237 240 243 245 245 248 248 248 251 254 254 254 256 257 259 261 263 264 266 267 268 269 269 270 270 270 270 270 270 271 271 271 272 273 273 274 275
226 228 230 233 235 233 235 238 242 246 245 246 247 248 249 251 252 253 254 255 257 259 261 262 263 265 266 267 268 269 270 271 271 271 270 270 270 271 271 272 273 275 276 276
227 230 233 236 236 235 237 240 243 244 245 246 247 248 248 250 251 252 254 256 258 259 260 262 263 265 266 266 267 268 269 271 271 272 271 272 272 272 273 273 275 276 277 277
229 230 232 234 233 233 236 240 242 243 244 245 246 247 247 249 250 253 254 256 258 259 261 262 263 265 265 266 267 268 269 271 272 273 273 274 274 274 275 275 276 276 277 278
230 232 233 233 232 233 235 238 240 242 242 244 244 246 247 248 250 252 254 255 257 259 260 262 264 265 266 267 267 268 270 271 272 273 273 274 275 276 276 277 278 279 279 279
229 230 232 233 232 233 235 237 239 240 241 241 243 245 247 248 250 252 254 256 257 259 261 262 264 266 267 268 268 269 270 272 273 273 274 274 275 276 277 278 279 279 280 280
Height
5721 5730 5739 5751 5759 5765 5770 5774 5780 5786 5789 5794 5798 5804 5810 5813 5816 5820 5823 5825 5828 5831 5832 5834 5837 5839 5841 5843 5845 5847 5848 5850 5851 5853 5855 5856 5857 5858 5859 5861 5862 5863 5864 5864
5711 5722 5737 5742 5747 5753 5759 5765 5771 5776 5780 5785 5790 5796 5803 5807 5810 5814 5817 5820 5822 5825 5827 5829 5831 5834 5836 5838 5840 5842 5843 5845 5846 5848 5849 5850 5852 5853 5855 5856 5857 5858 5858 5859
5704 5720 5726 5730 5736 5743 5750 5757 5763 5768 5771 5776 5781 5787 5794 5800 5803 5807 5810 5813 5816 5819 5821 5823 5826 5828 5830 5833 5835 5836 5837 5839 5840 5842 5843 5845 5846 5848 5850 5851 5851 5851 5852 5852
5694 5705 5712 5719 5727 5736 5743 5750 5753 5757 5762 5767 5773 5776 5787 5792 5796 5800 5804 5807 5810 5812 5814 5816 5819 5821 5824 5826 5828 5829 5831 5832 5834 5835 5837 5839 5840 5843 5844 5844 5844 5845 5846 5846
5684 5694 5701 5709 5721 5728 5734 5739 5743 5747 5751 5756 5763 5766 5776 5783 5788 5793 5797 5800 5802 5804 5807 5809 5812 5814 5817 5818 5820 5822 5824 5826 5827 5829 5830 5832 5834 5836 5836 5836 5837 5838 5839 5839
5675 5683 5691 5702 5711 5716 5722 5728 5732 5736 5739 5744 5755 5756 5764 5775 5781 5785 5789 5792 5794 5797 5799 5801 5803 5806 5809 5811 5813 5815 5816 5818 5820 5821 5822 5824 5826 5827 5828 5828 5829 5830 5830 5831
5661 5670 5680 5690 5696 5702 5709 5717 5722 5724 5726 5735 5745 5745 5756 5767 5773 5777 5781 5783 5785 5787 5790 5793 5795 5798 5800 5802 5804 5806 5808 5810 5811 5813 5814 5816 5817 5818 5819 5820 5820 5821 5821 5822
5652 5660 5671 5680 5687 5693 5701 5707 5713 5717 5721 5729 5732 5737 5751 5757 5763 5767 5771 5774 5776 5778 5780 5783 5786 5789 5791 5793 5796 5797 5799 5801 5802 5803 5805 5806 5807 5808 5809 5810 5811 5811 5812 5812
5645 5655 5664 5671 5678 5684 5689 5695 5704 5706 5710 5716 5720 5730 5740 5747 5752 5757 5761 5763 5766 5768 5770 5773 5776 5779 5782 5784 5786 5788 5790 5791 5793 5794 5795 5796 5797 5798 5800 5800 5800 5800 5801 5802
5638 5644 5652 5660 5664 5670 5679 5687 5690 5693 5699 5705 5712 5720 5731 5738 5742 5746 5749 5752 5755 5758 5760 5763 5765 5768 5771 5774 5776 5778 5779 5781 5782 5783 5784 5786 5787 5787 5788 5788 5789 5790 5790 5790
5628 5634 5641 5647 5652 5662 5669 5674 5678 5684 5688 5696 5702 5714 5722 5727 5731 5735 5738 5740 5743 5746 5749 5752 5755 5757 5760 5762 5765 5766 5768 5769 5770 5771 5773 5774 5775 5775 5776 5776 5777 5777 5778 5778
5617 5624 5630 5638 5647 5653 5658 5664 5670 5675 5681 5687 5693 5706 5712 5716 5719 5722 5725 5728 5731 5734 5738 5741 5743 5746 5748 5750 5753 5754 5756 5757 5758 5759 5760 5761 5762 5762 5763 5764 5764 5764 5764 5765
5608 5613 5619 5624 5632 5639 5645 5654 5660 5666 5670 5675 5683 5697 5702 5704 5707 5710 5713 5716 5718 5722 5725 5728 5731 5734 5736 5738 5740 5742 5743 5744 5745 5746 5747 5748 5748 5749 5750 5750 5751 5751 5751 5751
5599 5603 5611 5618 5626 5635 5639 5646 5650 5653 5657 5665 5675 5687 5691 5694 5697 5699 5701 5704 5706 5709 5713 5716 5718 5721 5724 5726 5728 5729 5730 5731 5732 5733 5733 5734 5735 5735 5736 5736 5736 5736 5736 5736
5587 5595 5603 5611 5617 5623 5629 5635 5639 5643 5651 5658 5669 5675 5682 5683 5685 5687 5689 5692 5694 5697 5700 5703 5706 5708 5711 5713 5715 5716 5717 5717 5718 5718 5719 5720 5720 5721 5721 5721 5722 5722 5721 5721
5578 5587 5594 5600 5606 5611 5615 5622 5628 5634 5642 5649 5656 5663 5672 5672 5672 5674 5677 5680 5683 5686 5688 5690 5692 5695 5697 5699 5701 5702 5703 5704 5704 5704 5705 5705 5705 5706 5706 5706 5707 5706 5706 5706
5570 5578 5584 5589 5595 5597 5601 5613 5620 5627 5633 5639 5644 5656 5660 5660 5661 5663 5666 5668 5671 5674 5676 5678 5680 5682 5684 5686 5688 5689 5690 5690 5690 5690 5691 5691 5691 5691 5692 5692 5691 5691 5691 5690
5560 5567 5573 5578 5583 5584 5600 5609 5611 5617 5623 5629 5635 5643 5646 5648 5649 5652 5655 5658 5660 5662 5665 5667 5668 5670 5672 5673 5674 5675 5676 5676 5677 5677 5677 5677 5677 5677 5677 5677 5677 5676 5676 5676
5550 5557 5562 5567 5571 5578 5590 5598 5603 5606 5612 5620 5625 5631 5634 5635 5636 5642 5646 5647 5649 5651 5653 5655 5656 5658 5659 5661 5661 5662 5663 5663 5663 5663 5664 5664 5664 5664 5663 5663 5663 5662 5662 5661
5539 5546 5553 5557 5561 5568 5585 5592 5593 5594 5599 5611 5613 5618 5622 5622 5625 5635 5636 5635 5637 5639 5641 5643 5644 5645 5647 5648 5649 5650 5650 5650 5650 5650 5650 5650 5650 5650 5650 5650 5649 5649 5648 5647
5528 5534 5540 5547 5552 5562 5576 5579 5580 5584 5597 5603 5603 5607 5609 5611 5617 5622 5621 5623 5625 5627 5629 5631 5632 5634 5635 5636 5637 5637 5637 5638 5637 5637 5637 5637 5637 5637 5637 5636 5636 5635 5635 5634
5519 5525 5531 5537 5544 5558 5566 5567 5571 5580 5586 5589 5591 5594 5598 5601 5605 5607 5609 5611 5613 5615 5617 5619 5620 5622 5623 5624 5625 5625 5625 5625 5625 5625 5625 5625 5624 5624 5624 5624 5623 5622 5622 5621
5510 5519 5526 5532 5542 5551 5554 5558 5563 5568 5573 5576 5579 5583 5587 5590 5593 5596 5598 5600 5602 5604 5606 5607 5609 5610 5611 5612 5612 5613 5613 5613 5613 5613 5613 5612 5612 5611 5611 5610 5610 5609 5608 5607
5502 5509 5515 5522 5531 5538 5543 5547 5552 5556 5561 5564 5568 5572 5575 5579 5581 5584 5587 5588 5590 5592 5594 5596 5597 5598 5599 5600 5601 5601 5601 5601 5601 5601 5600 5600 5600 5599 5598 5598 5597 5596 5595 5594
5493 5498 5504 5512 5521 5526 5531 5537 5541 5545 5549 5553 5556 5560 5564 5567 5570 5573 5575 5577 5579 5581 5583 5584 5586 5587 5588 5588 5589 5589 5589 5589 5589 5589 5588 5588 5587 5586 5586 5585 5584 5583 5582 5581
5482 5489 5496 5503 5512 5517 5522 5526 5530 5534 5538 5541 5545 5548 5552 5555 5558 5561 5563 5566 5568 5570 5571 5572 5574 5575 5576 5576 5577 5577 5577 5577 5577 5576 5576 5575 5574 5574 5573 5572 5571 5569 5568 5567